Location: Bakov nad Jizerou
(50.4784°N, 14.9394°E)
Time: 03:57:10
(UTC+00:00)

Cosmos 1727 Rocket - Pass Details

Date: 25 October 2021
Orbit: 960 x 997 km, 82.9° (Epoch: 07 December)

Event Time Altitude Azimuth Distance (km) Brightness Sun altitude
Rises 16:52:16 0° 345° (NNW) 3,675 7.1 -10.8°
Reaches altitude 10° 16:54:56 10° 338° (NNW) 2,719 6.5 -11.2°
Maximum altitude 17:00:37 39° 272° (W) 1,402 5.5 -12.1°
Drops below altitude 10° 17:06:15 10° 205° (SSW) 2,690 6.7 -13.0°
Sets 17:08:53 0° 198° (SSW) 3,632 7.3 -13.4°
